432  
ASUS45 KGGW 232115  
RWRGGW  
HOURLY REGIONAL WEATHER ROUNDUP FOR NORTHEAST MONTANA  
NATIONAL WEATHER SERVICE GLASGOW MONTANA  
300 PM MDT SAT JUN 23 2018  
 
NOTE: "FAIR" INDICATES FEW OR NO CLOUDS BELOW 12,000 FEET WITH NO  
SIGNIFICANT WEATHER AND/OR S TO VISISBILITY.  
 
NORTHEAST MONTANA  
 
 
CITY SKY/WX TMP DP RH WIND PRES REMARKS
 
GLASGOW CLOUDY 79 57 46 W5 29.72S  
PLENTYWOOD N/A 79 51 37 W7 N/A  
WOLF POINT CLOUDY 76 55 48 N10 29.70S  
JORDAN N/A 65 58 78 W8 29.78R  
WINNETT N/A 70 44 39 NW8 N/A  
SIDNEY CLOUDY 75 60 59 E7 29.71S  
GLENDIVE CLOUDY 72 57 60 W15 29.75R THUNDER  
MALTA N/A 79 55 43 W9 N/A  
 
FORT PECK REPORTS  
 
 
CITY SKY/WX TMP DP RH WIND PRES REMARKS
 
FORT PECK N/A 75 59 57 W12 N/A  
THE PINES N/A 68 54 60 N1G12 N/A  
 
SOUTHEAST MONTANA  
 
 
CITY SKY/WX TMP DP RH WIND PRES REMARKS
 
BILLINGS PTSUNNY 68 52 56 NE14 29.86R  
MILES CITY CLOUDY 76 61 59 NW17G24 29.77S  
BAKER LGT RAIN 68 60 75 NW14G20 29.77R  
LIVINGSTON LGT RAIN 53 50 89 SW12 29.98R  
 
CENTRAL MONTANA  
 
 
CITY SKY/WX TMP DP RH WIND PRES REMARKS
 
HAVRE SUNNY 77 47 34 W10 29.77F  
LEWISTOWN RAIN 57 50 77 SW13 29.91R  
GREAT FALLS LGT RAIN 69 51 52 W18G26 29.87S  
CUT BANK MOSUNNY 68 50 52 NW18G30 29.90R  
HELENA CLOUDY 61 46 57 W14G25 29.96S  
BUTTE CLOUDY 54 41 61 NW16G26 30.06R  
BOZEMAN CLOUDY 58 49 72 CALM 30.03R  
 
WESTERN MONTANA  
 
 
CITY SKY/WX TMP DP RH WIND PRES REMARKS
 
MISSOULA LGT RAIN 55 51 86 E5 30.05R  
KALISPELL NOT AVBL  
 
NORTH DAKOTA  
 
 
CITY SKY/WX TMP DP RH WIND PRES REMARKS
 
WILLISTON LGT RAIN 63 61 93 SW3 29.72S  
DICKINSON LGT RAIN 63 56 78 W12 29.73R  
MINOT CLOUDY 70 60 70 NE18G36 29.72R THUNDER  
BISMARCK PTSUNNY 74 61 63 S6 29.71R  
 
SOUTHERN SASKATCHEWAN  
 
 
CITY SKY/WX TMP DP RH WIND PRES REMARKS
 
REGINA PTSUNNY 70 57 64 NE13G20 29.70R  
ESTEVAN CLOUDY 79 59 50 SE2 29.69R  
SWIFT CURRENT CLOUDY 66 55 68 E6 29.74R  
 
 
 
CLICK HERE TO GO TO PREVIOUS BULLETINS.

The Nexlab MT Page Main Text Page